DECAYED

DMSP 5D-2 F13 DEB, 42292 (Decayed)

Orbit data source: Space-Track

DMSP 5D-2 F13 DEB, 42292 was space debris in SSO originally from a launch on Fri, 24 Mar 1995 UTC launched from the Air Force Western Test Range (AFWTR). Debris objects in space refer to the collection of defunct objects orbiting the Earth. Examples of debris include non-operational satellites, rocket bodies, and fragments generated from explosions, collisions, or faulty payload assembly.

Not visible in the next 10 days
Identifier
42292, 1995-015HJ
Orbit
Decayed
Country
Flag of USUS
Related business
Manufacturer
Unknown
Mission
Decayed spacecraft
Bus & Motor
Unknown
Mass
Unknown
Launch date (UTC)
1995-03-24 (31 years ago)
Launch vehicle
Unknown
Launch site
Air Force Western Test Range (AFWTR)
Object type
Payload
Rocket body
Debris
Shape & HBR
Unknown shape, 0.1 m
Radar Cross Section
Small (<0.1 m²)

Expand to show TLE details & history
Last TLE update: 1 year ago

TLE from 1 year ago
0 DMSP 5D-2 F13 DEB
1 42292U 95015HJ  25076.11306453  .00281021  00000-0  20197-1 0  9996
2 42292  98.7071 137.6474 0014740 229.7419 130.2515 15.02723385512455
Epoch: 2025-03-17T02:42Z
TLE epoch observation values (Epoch: 2025-03-17T02:42:48.775Z)
Latitude
0.00003°
Longitude
-77.9904°
Altitude
568.146 km
Speed
7.573 km/s
True Right ascension
09h 10m 35s
True Declination
0° 00' 00"
Sunlit
Object was in full shadow at epoch
Visualization orbit readout
Latitude
Unknown
Longitude
Unknown
Altitude
Unknown
Speed
Unknown
Apparent Right ascension
Unknown
Apparent Declination
Unknown
Sunlit
N/A
Visualization observer readout
Local Sidereal Time
23:08:07
Azimuth
Unknown
Elevation
Unknown
Doppler factor
Unknown
Orbital elements
Apogee altitude
565.772 km
Perigee altitude
545.331 km
Semi-major axis
6,933.689 km
Eccentricity
0.00147
Inclination
98.7071°
RAAN
137.6474°
Arg. of periapsis
229.7419°
True anomaly
130.38026°
Mean anomaly
130.2515°
Eccentric anomaly
130.3159°
Mean motion
3.75921 °/min
Orbital period
95.76 mins
BSTAR
0.020197
Loading maneuver chart data...
Computing Atmospheric mass density...

Documentation

Showing up to 5 results
|